FW2439 Weather Reports


time (UTC)temp
C
wind
direction
speed
KPH
gust
KPH
rain 1hr
cm
rain 24hr
cm
rain mn
cm
humidity
%
barometer
mb
20260904224543 36 295 0.0 3.2 0.00 0.00 0.00 54 1012.8
20260904223046 36 290 0.0 3.2 0.00 0.00 0.00 50 1012.6
20260904221534 36 292 0.0 3.2 0.00 0.00 0.00 51 1012.7
20260904220040 36 296 0.0 3.2 0.00 0.00 0.00 53 1012.7
20260904214533 36 303 0.0 3.2 0.00 0.00 0.00 52 1012.8
20260904213034 37 283 1.6 6.4 0.00 0.00 0.00 49 1012.9
20260904211530 37 286 0.0 3.2 0.00 0.00 0.00 47 1012.8
20260904210027 37 316 0.0 4.8 0.00 0.00 0.00 45 1012.9
20260904204525 37 257 0.0 3.2 0.00 0.00 0.00 46 1013.1
20260904203029 37 8 0.0 9.7 0.00 0.00 0.00 46 1013.3
20260904201535 37 243 0.0 3.2 0.00 0.00 0.00 45 1013.5
20260904200037 37 30 3.2 9.7 0.00 0.00 0.00 48 1014.0
20260904194518 36 241 4.8 12.9 0.00 0.00 0.00 48 1014.4
20260904193015 35 302 1.6 8.0 0.00 0.00 0.00 52 1014.5
20260904191517 36 281 0.0 9.7 0.00 0.00 0.00 50 1014.7
20260904190012 37 245 0.0 4.8 0.00 0.00 0.00 52 1014.7
20260904184510 36 269 3.2 6.4 0.00 0.00 0.00 51 1014.9
20260904183008 35 324 0.0 4.8 0.00 0.00 0.00 54 1015.1
20260904181507 36 275 0.0 3.2 0.00 0.00 0.00 56 1015.2
20260904180005 36 184 3.2 8.0 0.00 0.00 0.00 55 1015.3
20260904174506 35 245 3.2 6.4 0.00 0.00 0.00 54 1015.5
20260904173002 35 234 0.0 6.4 0.00 0.00 0.00 55 1015.6
20260904171621 35 217 1.6 3.2 0.00 0.00 0.00 57 1015.8
20260904170058 35 317 1.6 4.8 0.00 0.00 0.00 56 1016.1
20260904164558 35 217 0.0 4.8 0.00 0.00 0.00 57 1016.2
20260904163058 35 226 0.0 4.8 0.00 0.00 0.00 59 1016.4
20260904161600 35 231 1.6 8.0 0.00 0.00 0.00 57 1016.4
20260904160058 35 214 0.0 3.2 0.00 0.00 0.00 59 1016.5
20260904154551 35 242 0.0 1.6 0.00 0.00 0.00 62 1016.6
20260904153106 34 250 0.0 3.2 0.00 0.00 0.00 64 1016.7
20260904151543 33 230 0.0 1.6 0.00 0.00 0.00 65 1016.6
20260904150038 33 227 0.0 3.2 0.00 0.00 0.00 66 1016.5
20260904144534 32 233 0.0 3.2 0.00 0.00 0.00 69 1016.4
20260904143035 31 224 0.0 1.6 0.00 0.00 0.00 77 1016.3
20260904141526 28 226 0.0 3.2 0.00 0.00 0.00 81 1016.3
20260904140021 27 222 0.0 0.0 0.00 0.00 0.00 89 1016.2
20260904134522 26 222 0.0 0.0 0.00 0.00 0.00 94 1016.2
20260904133016 25 222 0.0 0.0 0.00 0.00 0.00 96 1016.4
20260904131512 24 222 0.0 0.0 0.00 0.00 0.00 98 1016.2
20260904130010 23 222 0.0 0.0 0.00 0.00 0.00 99 1016.1
20260904124510 23 222 0.0 0.0 0.00 0.00 0.00 99 1016.0
20260904123009 22 222 0.0 0.0 0.00 0.00 0.00 99 1015.8
20260904121508 22 222 0.0 0.0 0.00 0.00 0.00 99 1015.7
20260904120007 22 222 0.0 0.0 0.00 0.00 0.00 99 1015.6
20260904114504 22 222 0.0 0.0 0.00 0.00 0.00 99 1015.3
20260904113002 22 222 0.0 0.0 0.00 0.00 0.00 99 1015.1
20260904111502 22 222 0.0 0.0 0.00 0.00 0.00 99 1015.0
20260904110100 22 222 0.0 0.0 0.00 0.00 0.00 99 1015.0
20260904104559 22 222 0.0 0.0 0.00 0.00 0.00 98 1014.9
20260904103059 22 222 0.0 0.0 0.00 0.00 0.00 98 1014.8
20260904101558 22 222 0.0 0.0 0.00 0.00 0.00 98 1014.8
20260904100056 22 222 0.0 0.0 0.00 0.00 0.00 98 1014.8
20260904094557 22 222 0.0 0.0 0.00 0.00 0.00 98 1014.8
20260904093055 22 222 0.0 0.0 0.00 0.00 0.00 98 1014.6
20260904091554 22 222 0.0 0.0 0.00 0.00 0.00 98 1014.5
20260904090053 22 222 0.0 0.0 0.00 0.00 0.00 98 1014.5
20260904084559 22 222 0.0 0.0 0.00 0.00 0.00 98 1014.5
20260904083053 23 222 0.0 0.0 0.00 0.00 0.00 98 1014.4
20260904081551 23 222 0.0 0.0 0.00 0.00 0.00 97 1014.3
20260904080110 23 222 0.0 0.0 0.00 0.00 0.00 97 1014.3
20260904074548 23 222 0.0 0.0 0.00 0.00 0.00 97 1014.3
20260904073046 23 222 0.0 0.0 0.00 0.00 0.00 96 1014.4
20260904071545 23 222 0.0 0.0 0.00 0.00 0.00 96 1014.3
20260904070050 23 222 0.0 0.0 0.00 0.00 0.00 96 1014.2
20260904064542 23 222 0.0 0.0 0.00 0.00 0.00 96 1014.3
20260904063103 23 222 0.0 0.0 0.00 0.00 0.00 95 1014.5
20260904061538 23 222 0.0 0.0 0.00 0.00 0.00 94 1014.4
20260904060042 23 222 0.0 0.0 0.00 0.00 0.00 94 1014.4
20260904054540 23 222 0.0 0.0 0.00 0.00 0.00 94 1014.5
20260904053043 24 222 0.0 0.0 0.00 0.00 0.00 93 1014.5
20260904051530 24 222 0.0 0.0 0.00 0.00 0.00 92 1014.5
20260904050027 24 222 0.0 0.0 0.00 0.00 0.00 92 1014.6
20260904044534 24 222 0.0 0.0 0.00 0.00 0.00 91 1014.5
20260904043037 25 222 0.0 0.0 0.00 0.00 0.00 91 1014.7
20260904041525 25 222 0.0 0.0 0.00 0.00 0.00 91 1014.8
20260904040025 25 222 0.0 0.0 0.00 0.00 0.00 91 1014.9
20260904034526 25 222 0.0 0.0 0.00 0.00 0.00 90 1014.8
20260904033030 25 222 0.0 0.0 0.00 0.00 0.00 90 1014.9
20260904031524 25 222 0.0 0.0 0.00 0.00 0.00 89 1014.8
20260904030033 25 222 0.0 0.0 0.00 0.00 0.00 89 1015.0
20260904024524 26 222 0.0 0.0 0.00 0.00 0.00 89 1014.9
20260904023022 26 222 0.0 0.0 0.00 0.00 0.00 89 1014.8
20260904021528 26 222 0.0 0.0 0.00 0.00 0.00 88 1014.5
20260904020022 26 222 0.0 0.0 0.00 0.00 0.00 86 1014.5
20260904014521 27 222 0.0 0.0 0.00 0.00 0.00 85 1014.4
20260904013020 27 222 0.0 0.0 0.00 0.00 0.00 84 1014.3
20260904011520 28 222 0.0 0.0 0.00 0.00 0.00 82 1014.1
20260904010021 28 222 0.0 0.0 0.00 0.00 0.00 80 1013.9
20260904004525 29 222 0.0 0.0 0.00 0.00 0.00 78 1013.7
20260904003022 30 222 0.0 0.0 0.00 0.00 0.00 74 1013.6
20260904001519 31 222 0.0 0.0 0.00 0.00 0.00 73 1013.5
20260904000018 31 222 0.0 0.0 0.00 0.00 0.00 70 1013.6
20260903234518 32 222 0.0 0.0 0.00 0.00 0.00 66 1013.5
20260903233029 33 222 0.0 0.0 0.00 0.00 0.00 63 1013.4
20260903231527 34 222 0.0 0.0 0.00 0.00 0.00 61 1013.3
20260903230015 35 222 0.0 1.6 0.00 0.00 0.00 57 1013.2